| time (UTC) | temp F | wind direction | speed MPH | gust MPH | rain 1hr in | rain 24hr in | rain mn in | humidity % | barometer mb |
| 20260510174550 | 70 | 224 | 1.0 | 5.0 | 0.00 | 0.25 | 0.00 | 70 | 1012.0 |
| 20260510173050 | 70 | 267 | 0.0 | 5.0 | 0.00 | 0.25 | 0.00 | 71 | 1011.9 |
| 20260510171548 | 70 | 222 | 0.0 | 4.0 | 0.00 | 0.25 | 0.00 | 71 | 1011.9 |
| 20260510170050 | 69 | 205 | 1.0 | 4.0 | 0.00 | 0.25 | 0.00 | 72 | 1012.2 |
| 20260510164550 | 68 | 236 | 1.0 | 4.0 | 0.00 | 0.25 | 0.00 | 74 | 1012.3 |
| 20260510163039 | 67 | 256 | 1.0 | 5.0 | 0.00 | 0.25 | 0.00 | 76 | 1012.5 |
| 20260510161536 | 66 | 222 | 1.0 | 7.0 | 0.00 | 0.25 | 0.00 | 78 | 1012.4 |
| 20260510160034 | 65 | 216 | 0.0 | 4.0 | 0.00 | 0.25 | 0.00 | 78 | 1012.5 |
| 20260510154544 | 64 | 127 | 1.0 | 4.0 | 0.00 | 0.25 | 0.00 | 79 | 1012.7 |
| 20260510153027 | 63 | 195 | 0.0 | 4.0 | 0.00 | 0.25 | 0.00 | 83 | 1012.7 |
| 20260510151523 | 61 | 185 | 0.0 | 6.0 | 0.00 | 0.25 | 0.00 | 85 | 1012.8 |
| 20260510150020 | 60 | 247 | 0.0 | 3.0 | 0.00 | 0.25 | 0.00 | 87 | 1013.0 |
| 20260510144523 | 59 | 211 | 0.0 | 5.0 | 0.00 | 0.25 | 0.00 | 88 | 1012.9 |
| 20260510143013 | 58 | 190 | 0.0 | 4.0 | 0.00 | 0.25 | 0.00 | 93 | 1013.0 |
| 20260510141510 | 56 | 214 | 1.0 | 5.0 | 0.00 | 0.25 | 0.00 | 94 | 1012.9 |
| 20260510140009 | 55 | 205 | 1.0 | 3.0 | 0.00 | 0.25 | 0.00 | 96 | 1012.8 |
| 20260510134504 | 54 | 205 | 0.0 | 2.0 | 0.00 | 0.25 | 0.00 | 96 | 1012.9 |
| 20260510133001 | 54 | 205 | 0.0 | 3.0 | 0.00 | 0.25 | 0.00 | 97 | 1013.0 |
| 20260510131600 | 53 | 289 | 0.0 | 2.0 | 0.00 | 0.25 | 0.00 | 97 | 1012.8 |
| 20260510130112 | 52 | 289 | 0.0 | 2.0 | 0.00 | 0.25 | 0.00 | 96 | 1012.6 |
| 20260510124602 | 52 | 289 | 0.0 | 0.0 | 0.00 | 0.26 | 0.00 | 97 | 1012.5 |
| 20260510123057 | 52 | 289 | 0.0 | 0.0 | 0.00 | 0.26 | 0.00 | 97 | 1012.6 |
| 20260510121553 | 52 | 289 | 0.0 | 0.0 | 0.00 | 0.26 | 0.00 | 97 | 1012.3 |
| 20260510120052 | 52 | 289 | 0.0 | 0.0 | 0.00 | 0.26 | 0.00 | 97 | 1012.0 |
| 20260510114550 | 51 | 289 | 0.0 | 0.0 | 0.00 | 0.26 | 0.00 | 97 | 1012.1 |
| 20260510113056 | 51 | 289 | 0.0 | 0.0 | 0.00 | 0.26 | 0.00 | 97 | 1012.1 |
| 20260510111546 | 51 | 289 | 0.0 | 0.0 | 0.00 | 0.26 | 0.00 | 97 | 1011.9 |
| 20260510110050 | 51 | 289 | 0.0 | 1.0 | 0.00 | 0.26 | 0.00 | 97 | 1011.5 |
| 20260510104545 | 51 | 289 | 0.0 | 0.0 | 0.00 | 0.26 | 0.00 | 97 | 1011.2 |
| 20260510103044 | 50 | 289 | 0.0 | 0.0 | 0.00 | 0.26 | 0.00 | 97 | 1011.4 |
| 20260510101553 | 50 | 289 | 0.0 | 0.0 | 0.00 | 0.26 | 0.00 | 96 | 1011.3 |
| 20260510100042 | 50 | 289 | 0.0 | 0.0 | 0.00 | 0.26 | 0.00 | 96 | 1011.3 |
| 20260510094546 | 50 | 289 | 0.0 | 0.0 | 0.00 | 0.26 | 0.00 | 96 | 1011.3 |
| 20260510093045 | 50 | 289 | 0.0 | 0.0 | 0.00 | 0.26 | 0.00 | 96 | 1011.2 |
| 20260510091544 | 50 | 289 | 0.0 | 0.0 | 0.00 | 0.26 | 0.00 | 96 | 1011.4 |
| 20260510090041 | 50 | 289 | 0.0 | 0.0 | 0.00 | 0.26 | 0.00 | 96 | 1011.4 |
| 20260510084542 | 51 | 289 | 0.0 | 0.0 | 0.00 | 0.26 | 0.00 | 96 | 1011.4 |
| 20260510083040 | 50 | 289 | 0.0 | 0.0 | 0.00 | 0.26 | 0.00 | 96 | 1011.5 |
| 20260510081539 | 50 | 289 | 0.0 | 1.0 | 0.00 | 0.26 | 0.00 | 96 | 1011.6 |
| 20260510080043 | 50 | 289 | 0.0 | 2.0 | 0.00 | 0.26 | 0.00 | 96 | 1011.6 |
| 20260510074542 | 50 | 289 | 1.0 | 3.0 | 0.00 | 0.26 | 0.00 | 96 | 1011.6 |
| 20260510073037 | 50 | 267 | 0.0 | 0.0 | 0.00 | 0.26 | 0.00 | 96 | 1010.8 |
| 20260510071533 | 50 | 267 | 0.0 | 0.0 | 0.00 | 0.26 | 0.00 | 96 | 1010.8 |
| 20260510070031 | 50 | 267 | 0.0 | 0.0 | 0.00 | 0.26 | 0.00 | 96 | 1011.0 |
| 20260510064544 | 51 | 267 | 0.0 | 0.0 | 0.00 | 0.26 | 0.00 | 96 | 1011.0 |
| 20260510063029 | 51 | 267 | 0.0 | 0.0 | 0.00 | 0.26 | 0.00 | 96 | 1011.0 |
| 20260510061531 | 51 | 267 | 0.0 | 0.0 | 0.00 | 0.26 | 0.00 | 96 | 1011.3 |
| 20260510060029 | 51 | 267 | 0.0 | 0.0 | 0.00 | 0.26 | 0.00 | 96 | 1011.0 |
| 20260510054527 | 51 | 267 | 0.0 | 0.0 | 0.00 | 0.28 | 0.00 | 96 | 1010.8 |
| 20260510053039 | 51 | 267 | 0.0 | 0.0 | 0.00 | 0.28 | 0.00 | 96 | 1010.8 |
| 20260510051537 | 51 | 267 | 0.0 | 0.0 | 0.00 | 0.28 | 0.00 | 96 | 1010.9 |
| 20260510050022 | 51 | 267 | 0.0 | 0.0 | 0.00 | 0.28 | 0.00 | 96 | 1011.0 |
| 20260510044522 | 51 | 267 | 0.0 | 0.0 | 0.00 | 0.28 | 0.00 | 96 | 1011.1 |
| 20260510043021 | 51 | 267 | 0.0 | 0.0 | 0.00 | 0.28 | 0.00 | 96 | 1011.1 |
| 20260510041520 | 51 | 267 | 0.0 | 0.0 | 0.00 | 0.28 | 0.00 | 96 | 1011.1 |
| 20260510040018 | 51 | 267 | 0.0 | 0.0 | 0.00 | 0.28 | 0.28 | 96 | 1011.2 |
| 20260510034517 | 50 | 267 | 0.0 | 0.0 | 0.00 | 0.28 | 0.28 | 96 | 1011.0 |
| 20260510033016 | 50 | 267 | 0.0 | 0.0 | 0.00 | 0.28 | 0.28 | 96 | 1010.7 |
| 20260510031523 | 50 | 267 | 0.0 | 1.0 | 0.00 | 0.28 | 0.28 | 96 | 1010.6 |
| 20260510030015 | 50 | 267 | 0.0 | 0.0 | 0.00 | 0.28 | 0.28 | 96 | 1010.9 |
| 20260510024515 | 50 | 267 | 0.0 | 0.0 | 0.00 | 0.28 | 0.28 | 95 | 1011.1 |
| 20260510023014 | 50 | 267 | 0.0 | 0.0 | 0.00 | 0.28 | 0.28 | 95 | 1011.0 |
| 20260510021521 | 50 | 267 | 0.0 | 0.0 | 0.00 | 0.28 | 0.28 | 95 | 1010.8 |
| 20260510020014 | 51 | 267 | 0.0 | 0.0 | 0.00 | 0.28 | 0.28 | 95 | 1010.8 |
| 20260510014513 | 51 | 267 | 0.0 | 0.0 | 0.00 | 0.28 | 0.28 | 95 | 1010.9 |
| 20260510013012 | 51 | 267 | 0.0 | 0.0 | 0.00 | 0.28 | 0.28 | 95 | 1010.7 |
| 20260510011512 | 51 | 267 | 0.0 | 0.0 | 0.00 | 0.28 | 0.28 | 95 | 1010.7 |
| 20260510010011 | 52 | 267 | 0.0 | 0.0 | 0.00 | 0.28 | 0.28 | 94 | 1010.3 |
| 20260510004510 | 53 | 267 | 0.0 | 0.0 | 0.00 | 0.28 | 0.28 | 94 | 1010.1 |
| 20260510003010 | 53 | 267 | 0.0 | 0.0 | 0.00 | 0.28 | 0.28 | 95 | 1010.3 |
| 20260510001509 | 53 | 267 | 0.0 | 0.0 | 0.00 | 0.28 | 0.28 | 95 | 1010.1 |
| 20260510000008 | 53 | 267 | 0.0 | 0.0 | 0.00 | 0.28 | 0.28 | 95 | 1010.1 |
| 20260509234508 | 53 | 267 | 0.0 | 0.0 | 0.00 | 0.28 | 0.28 | 95 | 1009.9 |
| 20260509233007 | 53 | 267 | 0.0 | 0.0 | 0.00 | 0.28 | 0.28 | 94 | 1009.9 |
| 20260509231507 | 54 | 267 | 0.0 | 1.0 | 0.00 | 0.28 | 0.28 | 94 | 1009.9 |
| 20260509230006 | 54 | 257 | 0.0 | 1.0 | 0.00 | 0.28 | 0.28 | 94 | 1009.9 |
| 20260509224504 | 54 | 257 | 0.0 | 0.0 | 0.00 | 0.28 | 0.28 | 95 | 1010.0 |
| 20260509223004 | 54 | 257 | 0.0 | 0.0 | 0.02 | 0.28 | 0.28 | 94 | 1010.2 |
| 20260509221503 | 54 | 257 | 0.0 | 0.0 | 0.04 | 0.28 | 0.28 | 94 | 1010.2 |
| 20260509220002 | 54 | 257 | 0.0 | 1.0 | 0.08 | 0.28 | 0.28 | 94 | 1010.1 |
| 20260509214500 | 53 | 257 | 0.0 | 1.0 | 0.12 | 0.28 | 0.28 | 94 | 1010.3 |
| 20260509213101 | 53 | 257 | 0.0 | 0.0 | 0.13 | 0.26 | 0.26 | 94 | 1010.6 |
| 20260509211607 | 54 | 257 | 0.0 | 0.0 | 0.13 | 0.24 | 0.24 | 94 | 1010.5 |
| 20260509210100 | 54 | 257 | 0.0 | 1.0 | 0.11 | 0.20 | 0.20 | 94 | 1010.3 |
| 20260509204603 | 54 | 257 | 0.0 | 0.0 | 0.09 | 0.16 | 0.16 | 94 | 1010.3 |
| 20260509203058 | 54 | 257 | 0.0 | 0.0 | 0.07 | 0.13 | 0.13 | 93 | 1010.5 |
| 20260509201557 | 54 | 257 | 0.0 | 1.0 | 0.05 | 0.11 | 0.11 | 92 | 1010.8 |
| 20260509200109 | 54 | 257 | 0.0 | 4.0 | 0.03 | 0.09 | 0.09 | 91 | 1010.8 |
| 20260509194557 | 55 | 253 | 1.0 | 3.0 | 0.01 | 0.07 | 0.07 | 90 | 1010.8 |
| 20260509193056 | 55 | 253 | 0.0 | 1.0 | 0.02 | 0.06 | 0.06 | 91 | 1010.9 |
| 20260509191555 | 55 | 253 | 0.0 | 0.0 | 0.03 | 0.06 | 0.06 | 90 | 1010.7 |
| 20260509190055 | 55 | 253 | 1.0 | 3.0 | 0.03 | 0.06 | 0.06 | 89 | 1010.7 |
| 20260509184555 | 56 | 278 | 0.0 | 3.0 | 0.03 | 0.07 | 0.06 | 87 | 1011.0 |
| 20260509183103 | 57 | 305 | 0.0 | 4.0 | 0.01 | 0.05 | 0.04 | 86 | 1011.7 |
| 20260509181553 | 59 | 224 | 2.0 | 5.0 | 0.00 | 0.04 | 0.03 | 80 | 1011.5 |
| 20260509180052 | 61 | 253 | 3.0 | 13.0 | 0.00 | 0.04 | 0.03 | 71 | 1010.9 |